Location: Bay Harbour
(38.2612°N, 75.2555°W)
Time: 01:43:57
(UTC+00:00)

Okean-O - Pass Details

Date: 29 October 2020
Orbit: 638 x 641 km, 98.2° (Epoch: 02 December)

Event Time Altitude Azimuth Distance (km) Brightness Sun altitude
Rises 22:50:04 0° 140° (SE) 2,933 5.7 -9.6°
Reaches altitude 10° 22:52:29 10° 128° (SE) 2,029 4.8 -10.0°
Maximum altitude 22:56:16 29° 69° (ENE) 1,191 3.5 -10.8°
Drops below altitude 10° 23:00:04 10° 11° (N) 2,040 5.0 -11.5°
Sets 23:02:30 0° 360° (N) 2,953 6.0 -12.0°
